Location: Cointrin
(46.2167°N, 6.1167°E)
Time: 19:41:53
(UTC+00:00)

Okean 1-7 Rocket - Pass Details

Date: 08 February 2023
Orbit: 615 x 648 km, 82.5° (Epoch: 22 March)

Event Time Altitude Azimuth Distance (km) Brightness Sun altitude
Rises 17:56:25 0° 169° (S) 2,893 7.0 -11.8°
Reaches altitude 10° 17:58:42 10° 163° (SSE) 1,996 6.1 -12.2°
Maximum altitude 18:02:53 42° 92° (E) 900 3.9 -12.9°
Drops below altitude 10° 18:07:08 10° 22° (NNE) 2,032 5.9 -13.7°
Sets 18:09:28 0° 16° (NNE) 2,951 6.8 -14.1°
